DD3UTS-13 Weather Reports


time (UTC)temp
C
wind
direction
speed
KPH
gust
KPH
rain 1hr
cm
rain 24hr
cm
rain mn
cm
humidity
%
barometer
mb
20260507172031 8 10 4.8 0.0 0.00 1.27 0.00 90 1013.8
20260507171531 8 350 4.8 0.0 0.00 1.27 0.00 90 1013.7
20260507171031 8 3 4.8 0.0 0.00 1.27 0.00 90 1013.6
20260507170531 8 3 6.4 0.0 0.00 1.22 0.00 90 1013.6
20260507170031 8 357 4.8 0.0 0.00 1.22 0.00 90 1013.6
20260507165531 8 5 6.4 0.0 0.00 1.22 0.00 90 1013.6
20260507165032 8 352 4.8 0.0 0.00 1.22 0.00 90 1013.6
20260507164532 8 355 3.2 0.0 0.00 1.22 0.00 90 1013.6
20260507164032 8 20 0.0 0.0 0.00 1.22 0.00 90 1013.5
20260507163531 8 0 0.0 0.0 0.00 1.22 0.00 90 1013.5
20260507163031 8 357 0.0 0.0 0.00 1.22 0.00 90 1013.4
20260507162531 8 10 4.8 0.0 0.00 1.22 0.00 90 1013.4
20260507162032 8 0 6.4 0.0 0.00 1.22 0.00 90 1013.4
20260507161531 8 12 4.8 0.0 0.00 1.22 0.00 90 1013.4
20260507161032 8 0 4.8 0.0 0.00 1.22 0.00 90 1013.4
20260507160532 8 350 4.8 0.0 0.00 1.22 0.00 90 1013.4
20260507160031 8 342 4.8 0.0 0.00 1.22 0.00 90 1013.4
20260507155532 8 3 4.8 0.0 0.00 1.22 0.00 89 1013.4
20260507155031 8 342 4.8 0.0 0.00 1.22 0.00 89 1013.2
20260507154531 8 322 6.4 0.0 0.00 1.22 0.00 89 1013.2
20260507154032 8 355 4.8 0.0 0.00 1.22 0.00 89 1013.1
20260507153532 8 3 6.4 0.0 0.00 1.22 0.00 89 1013.1
20260507153032 8 340 6.4 0.0 0.00 1.22 0.00 89 1013.1
20260507152531 8 357 4.8 0.0 0.00 1.22 0.00 89 1013.0
20260507152031 8 357 4.8 0.0 0.00 1.22 0.00 89 1012.9
20260507151532 8 345 4.8 0.0 0.00 1.22 0.00 89 1012.9
20260507151032 8 357 6.4 0.0 0.00 1.22 0.00 89 1012.9
20260507150531 8 355 6.4 0.0 0.00 1.22 0.00 89 1012.9
20260507150032 8 350 4.8 0.0 0.00 1.22 0.00 89 1012.8
20260507145532 8 345 6.4 0.0 0.00 1.22 0.00 89 1012.8
20260507145032 8 357 6.4 0.0 0.00 1.17 0.00 89 1012.8
20260507144532 8 8 6.4 0.0 0.00 1.17 0.00 89 1012.8
20260507144031 8 357 6.4 0.0 0.00 1.17 0.00 89 1012.7
20260507143532 9 10 4.8 0.0 0.00 1.17 0.00 89 1012.7
20260507143032 9 8 6.4 0.0 0.00 1.17 0.00 89 1012.6
20260507142532 9 10 4.8 0.0 0.00 1.14 0.00 89 1012.5
20260507142031 9 155 3.2 0.0 0.00 1.14 0.00 89 1012.5
20260507141532 9 5 6.4 0.0 0.00 1.14 0.00 89 1012.5
20260507141031 9 8 6.4 0.0 0.00 1.14 0.00 89 1012.5
20260507140531 9 310 6.4 0.0 0.00 1.14 0.00 89 1012.4
20260507140032 9 17 4.8 0.0 0.00 1.14 0.00 89 1012.4
20260507135531 9 22 8.0 0.0 0.00 1.12 0.00 89 1012.4
20260507135032 9 20 6.4 0.0 0.00 1.12 0.00 89 1012.3
20260507134532 9 5 6.4 0.0 0.00 1.12 0.00 89 1012.3
20260507134032 9 17 6.4 0.0 0.00 1.09 0.00 89 1012.2
20260507133531 9 3 4.8 0.0 0.00 1.07 0.00 89 1012.2
20260507133032 9 8 4.8 0.0 0.00 1.04 0.00 89 1012.2
20260507132533 9 10 8.0 0.0 0.00 1.04 0.00 89 1012.3
20260507132032 10 357 6.4 0.0 0.00 0.99 0.00 89 1012.3
20260507131531 10 340 4.8 0.0 0.00 0.99 0.00 89 1012.3
20260507131031 9 3 8.0 0.0 0.00 0.97 0.00 89 1012.2
20260507130532 9 345 6.4 0.0 0.00 0.94 0.00 88 1012.2
20260507130031 9 355 8.0 0.0 0.00 0.89 0.00 88 1012.2
20260507125531 10 345 6.4 0.0 0.00 0.84 0.00 88 1012.1
20260507125032 10 340 6.4 0.0 0.00 0.84 0.00 88 1012.0
20260507124532 10 3 6.4 0.0 0.00 0.81 0.00 88 1011.9
20260507124031 10 352 8.0 0.0 0.00 0.76 0.00 88 1011.8
20260507123531 10 8 6.4 0.0 0.00 0.76 0.00 89 1011.8
20260507123032 10 20 0.0 0.0 0.00 0.76 0.00 89 1011.7
20260507122532 10 20 0.0 0.0 0.00 0.74 0.00 88 1011.7
20260507122031 10 0 6.4 0.0 0.00 0.71 0.00 88 1011.6
20260507121531 10 10 4.8 0.0 0.00 0.71 0.00 89 1011.5
20260507121031 10 10 0.0 0.0 0.00 0.71 0.00 89 1011.5
20260507120531 10 10 0.0 0.0 0.00 0.71 0.00 89 1011.4
20260507120031 10 25 0.0 0.0 0.00 0.71 0.00 89 1011.4
20260507115531 10 5 0.0 0.0 0.00 0.71 0.00 89 1011.3
20260507115032 10 12 0.0 0.0 0.00 0.71 0.00 89 1011.3
20260507114532 10 32 4.8 0.0 0.00 0.66 0.00 89 1011.3
20260507114032 10 27 4.8 0.0 0.00 0.66 0.00 89 1011.2
20260507113531 10 12 3.2 0.0 0.00 0.66 0.00 89 1011.2
20260507113031 10 35 4.8 0.0 0.00 0.66 0.00 89 1011.1
20260507112534 10 152 4.8 0.0 0.00 0.66 0.00 89 1011.1
20260507112031 10 32 0.0 0.0 0.00 0.66 0.00 89 1011.1
20260507111532 10 27 4.8 0.0 0.00 0.66 0.00 89 1011.0
20260507111032 10 15 0.0 0.0 0.00 0.64 0.00 89 1011.0
20260507110531 10 25 3.2 0.0 0.00 0.64 0.00 89 1011.0
20260507110032 10 25 0.0 0.0 0.00 0.64 0.00 89 1011.0
20260507105531 10 0 0.0 0.0 0.00 0.61 0.00 89 1010.9
20260507105032 10 37 3.2 0.0 0.00 0.61 0.00 89 1010.8
20260507104531 10 20 0.0 0.0 0.00 0.58 0.00 89 1010.8
20260507104031 10 15 0.0 0.0 0.00 0.58 0.00 89 1010.8
20260507103532 10 30 4.8 0.0 0.00 0.58 0.00 89 1010.8
20260507103031 10 20 0.0 0.0 0.00 0.58 0.00 89 1010.8
20260507102531 10 3 0.0 0.0 0.00 0.58 0.00 89 1010.7
20260507102031 10 3 6.4 0.0 0.00 0.58 0.00 89 1010.6
20260507101532 10 17 6.4 0.0 0.00 0.58 0.00 89 1010.6
20260507101031 10 42 6.4 0.0 0.00 0.58 0.00 89 1010.7
20260507100532 10 20 4.8 0.0 0.00 0.58 0.00 89 1010.6
20260507100031 10 10 6.4 0.0 0.00 0.58 0.00 89 1010.4
20260507095531 10 5 6.4 0.0 0.00 0.58 0.00 89 1010.5
20260507095031 10 8 6.4 0.0 0.00 0.58 0.00 89 1010.5
20260507094532 10 0 6.4 0.0 0.00 0.58 0.00 89 1010.4
20260507094031 10 0 6.4 0.0 0.00 0.58 0.00 89 1010.4
20260507093532 10 3 4.8 0.0 0.00 0.58 0.00 89 1010.4
20260507093032 10 30 4.8 0.0 0.00 0.58 0.00 89 1010.4
20260507092531 10 17 0.0 0.0 0.00 0.58 0.00 89 1010.3
20260507092032 10 15 6.4 0.0 0.00 0.58 0.00 89 1010.2
20260507091532 10 10 0.0 0.0 0.00 0.58 0.00 90 1010.2
20260507091032 10 10 4.8 0.0 0.00 0.58 0.00 89 1010.2
20260507090531 10 17 6.4 0.0 0.00 0.58 0.00 89 1010.1
20260507090032 10 3 6.4 0.0 0.00 0.58 0.00 90 1010.1
20260507085531 10 5 4.8 0.0 0.00 0.56 0.00 89 1010.0
20260507085031 10 330 6.4 0.0 0.00 0.56 0.00 90 1010.0
20260507084531 10 357 4.8 0.0 0.00 0.56 0.00 90 1009.9
20260507084031 10 355 6.4 0.0 0.00 0.56 0.00 90 1009.8
20260507083532 9 10 6.4 0.0 0.00 0.56 0.00 90 1009.8
20260507083033 10 10 6.4 0.0 0.00 0.56 0.00 90 1009.7
20260507082532 9 342 6.4 0.0 0.00 0.56 0.00 90 1009.6
20260507082032 9 10 6.4 0.0 0.00 0.56 0.00 90 1009.6
20260507081532 9 8 6.4 0.0 0.00 0.53 0.00 90 1009.6
20260507081031 9 0 4.8 0.0 0.00 0.53 0.00 89 1009.5
20260507080531 9 17 6.4 0.0 0.00 0.53 0.00 90 1009.5
20260507080033 9 335 4.8 0.0 0.00 0.51 0.00 90 1009.5
20260507075531 9 340 4.8 0.0 0.00 0.48 0.00 90 1009.4
20260507075032 9 345 4.8 0.0 0.00 0.48 0.00 89 1009.3
20260507074531 9 0 6.4 0.0 0.00 0.48 0.00 90 1009.3
20260507074032 9 5 4.8 0.0 0.00 0.43 0.00 90 1009.2
20260507073531 9 20 4.8 0.0 0.00 0.43 0.00 90 1009.2
20260507073031 9 12 6.4 0.0 0.00 0.43 0.00 89 1009.2
20260507072532 9 12 0.0 0.0 0.00 0.43 0.00 89 1009.1
20260507072031 9 25 0.0 0.0 0.00 0.43 0.00 89 1009.1
20260507071531 9 350 4.8 0.0 0.00 0.43 0.00 89 1009.0
20260507071032 9 5 6.4 0.0 0.00 0.43 0.00 89 1008.9
20260507070532 10 357 3.2 0.0 0.00 0.41 0.00 89 1008.9
20260507070031 9 20 0.0 0.0 0.00 0.41 0.00 89 1008.9
20260507065532 9 355 0.0 0.0 0.00 0.41 0.00 89 1008.9
20260507065031 9 355 4.8 0.0 0.00 0.41 0.00 89 1008.9
20260507064532 10 357 4.8 0.0 0.00 0.41 0.00 89 1008.8
20260507064032 10 15 0.0 0.0 0.00 0.41 0.00 89 1008.7
20260507063532 10 352 0.0 0.0 0.00 0.38 0.00 89 1008.7
20260507063031 10 352 0.0 0.0 0.00 0.38 0.00 89 1008.6
20260507062531 9 8 4.8 0.0 0.00 0.38 0.00 89 1008.6
20260507062032 9 10 4.8 0.0 0.00 0.38 0.00 89 1008.5
20260507061531 10 0 0.0 0.0 0.00 0.38 0.00 89 1008.5
20260507061032 10 0 0.0 0.0 0.00 0.36 0.00 89 1008.4
20260507060532 10 12 0.0 0.0 0.00 0.33 0.00 89 1008.4
20260507060032 10 12 0.0 0.0 0.00 0.33 0.00 89 1008.4
20260507055532 10 12 0.0 0.0 0.00 0.28 0.00 89 1008.4
20260507055031 10 12 0.0 0.0 0.00 0.28 0.00 89 1008.3
20260507054531 10 12 0.0 0.0 0.00 0.25 0.00 89 1008.3
20260507054031 10 8 0.0 0.0 0.00 0.23 0.00 89 1008.2
20260507053531 10 5 0.0 0.0 0.00 0.23 0.00 89 1008.2
20260507053032 9 3 0.0 0.0 0.00 0.20 0.00 89 1008.1
20260507052532 9 3 0.0 0.0 0.00 0.18 0.00 89 1008.1
20260507052033 9 3 0.0 0.0 0.00 0.15 0.00 89 1008.0
20260507051532 9 3 0.0 0.0 0.00 0.10 0.00 89 1008.0
20260507051031 9 3 3.2 0.0 0.00 0.08 0.00 89 1007.9
20260507050531 9 10 0.0 0.0 0.00 0.05 0.00 89 1007.9
20260507050031 9 12 4.8 0.0 0.00 0.53 0.00 89 1007.9
20260507045531 9 17 0.0 0.0 0.00 0.53 0.00 89 1007.8
20260507045031 9 17 0.0 0.0 0.00 0.46 0.00 89 1007.8
20260507044532 9 17 0.0 0.0 0.00 0.46 0.00 89 1007.8
20260507044032 9 17 0.0 0.0 0.00 0.43 0.00 89 1007.6
20260507043531 10 25 4.8 0.0 0.00 0.38 0.00 89 1007.6
20260507043031 9 352 4.8 0.0 0.00 0.38 0.00 89 1007.6
20260507042531 10 17 0.0 0.0 0.00 0.38 0.00 89 1007.5
20260507042032 10 0 0.0 0.0 0.00 0.38 0.00 89 1007.5
20260507041531 10 357 6.4 0.0 0.00 0.38 0.00 89 1007.4
20260507041031 10 12 0.0 0.0 0.00 0.38 0.00 89 1007.3
20260507040531 10 355 0.0 0.0 0.00 0.38 0.00 89 1007.3
20260507040032 10 15 4.8 0.0 0.00 0.38 0.00 89 1007.3
20260507035531 10 12 4.8 0.0 0.00 0.38 0.00 89 1007.3
20260507035031 10 35 0.0 0.0 0.00 0.36 0.00 89 1007.2
20260507034532 10 0 6.4 0.0 0.00 0.36 0.00 89 1007.2
20260507034031 10 10 6.4 0.0 0.00 0.36 0.00 89 1007.2
20260507033532 10 352 4.8 0.0 0.00 0.36 0.00 89 1007.2
20260507033031 10 5 6.4 0.0 0.00 0.36 0.00 89 1007.2
20260507032532 10 347 0.0 0.0 0.00 0.36 0.00 89 1007.2
20260507032032 10 3 0.0 0.0 0.00 0.33 0.00 89 1007.1
20260507031531 10 8 0.0 0.0 0.00 0.33 0.00 89 1007.1
20260507031032 10 5 0.0 0.0 0.00 0.33 0.00 89 1007.1
20260507030532 10 8 0.0 0.0 0.00 0.30 0.00 89 1007.1
20260507030032 10 8 0.0 0.0 0.00 0.28 0.00 88 1007.1
20260507025531 10 8 0.0 0.0 0.00 0.28 0.00 88 1007.1
20260507025032 10 8 0.0 0.0 0.00 0.23 0.00 88 1007.1
20260507024532 10 355 0.0 0.0 0.00 0.23 0.00 88 1007.0
20260507024031 10 347 0.0 0.0 0.00 0.23 0.00 88 1007.0
20260507023531 10 315 4.8 0.0 0.00 0.23 0.00 88 1007.0
20260507023031 10 310 4.8 0.0 0.00 0.23 0.00 88 1007.1
20260507022532 10 307 6.4 0.0 0.00 0.23 0.00 88 1007.1
20260507022031 10 355 0.0 0.0 0.00 0.23 0.00 88 1007.1
20260507021531 10 342 0.0 0.0 0.00 0.23 0.00 88 1007.1
20260507021031 10 330 4.8 0.0 0.00 0.23 0.00 88 1007.0
20260507020532 10 292 4.8 0.0 0.00 0.23 0.00 88 1007.0
20260507020031 10 320 6.4 0.0 0.00 0.23 0.00 88 1007.0
20260507015532 10 320 0.0 0.0 0.00 0.23 0.00 88 1007.0
20260507015032 10 355 6.4 0.0 0.00 0.23 0.00 88 1006.9
20260507014531 10 320 0.0 0.0 0.00 0.23 0.00 88 1006.9
20260507014032 10 10 0.0 0.0 0.00 0.23 0.00 88 1006.9
20260507013531 10 17 0.0 0.0 0.00 0.23 0.00 88 1006.9
20260507013031 10 15 0.0 0.0 0.00 0.23 0.00 88 1006.8
20260507012531 10 10 4.8 0.0 0.00 0.23 0.00 88 1006.7
20260507012031 10 355 4.8 0.0 0.00 0.23 0.00 88 1006.6
20260507011532 10 57 6.4 0.0 0.00 0.23 0.00 88 1006.5
20260507011031 10 120 8.0 0.0 0.00 0.23 0.00 88 1006.4
20260507010532 10 130 8.0 0.0 0.00 0.23 0.00 88 1006.4
20260507010032 10 135 8.0 0.0 0.00 0.23 0.00 88 1006.3
20260507005531 10 137 8.0 0.0 0.00 0.23 0.00 87 1006.3
20260507005032 10 147 6.4 0.0 0.00 0.23 0.00 87 1006.3
20260507004532 10 195 6.4 0.0 0.00 0.23 0.00 87 1006.3
20260507004032 10 202 8.0 0.0 0.00 0.23 0.00 87 1006.3
20260507003531 10 140 6.4 0.0 0.00 0.23 0.00 87 1006.3
20260507003032 10 165 6.4 0.0 0.00 0.23 0.00 87 1006.3
20260507002532 10 145 6.4 0.0 0.00 0.23 0.00 87 1006.3
20260507002031 10 122 4.8 0.0 0.00 0.23 0.00 87 1006.2
20260507001532 10 110 0.0 0.0 0.00 0.23 0.00 87 1006.2
20260507001032 10 82 4.8 0.0 0.00 0.23 0.00 87 1006.3
20260507000532 10 100 0.0 0.0 0.00 0.23 0.00 87 1006.3
20260507000032 10 100 0.0 0.0 0.00 0.23 0.00 87 1006.3
20260506235532 10 50 0.0 0.0 0.00 0.23 0.00 87 1006.4
20260506235031 10 52 0.0 0.0 0.00 0.23 0.00 87 1006.4
20260506234531 10 15 0.0 0.0 0.00 0.23 0.00 87 1006.4
20260506234032 10 10 6.4 0.0 0.00 0.23 0.00 87 1006.3
20260506233531 10 20 0.0 0.0 0.00 0.20 0.00 86 1006.3
20260506233031 10 20 0.0 0.0 0.00 0.20 0.00 86 1006.2
20260506232531 11 20 0.0 0.0 0.00 0.20 0.00 86 1006.2
20260506232032 11 60 0.0 0.0 0.00 0.18 0.00 86 1006.2
20260506231532 11 3 0.0 0.0 0.00 0.18 0.00 86 1006.1
20260506231031 11 0 6.4 0.0 0.00 0.18 0.00 86 1006.1
20260506230531 11 0 6.4 0.0 0.00 0.15 0.00 86 1006.1
20260506230032 11 350 6.4 0.0 0.00 0.05 0.00 85 1006.2
20260506225532 11 22 6.4 0.0 0.00 0.03 0.00 85 1006.2
20260506225032 11 15 8.0 0.0 0.00 0.03 0.00 85 1006.3
20260506224532 11 310 6.4 0.0 0.00 0.03 0.00 85 1006.4
20260506224031 11 345 4.8 0.0 0.00 0.00 0.00 85 1006.3
20260506223531 11 10 6.4 0.0 0.00 0.00 0.00 85 1006.3
20260506223032 11 355 6.4 0.0 0.00 0.00 0.00 84 1006.4
20260506222531 11 305 9.7 0.0 0.00 0.00 0.00 84 1006.6
20260506222031 11 340 12.9 0.0 0.00 0.00 0.00 84 1006.6
20260506221532 11 300 33.8 0.0 0.00 0.00 0.00 83 1006.5
20260506221032 11 300 33.8 0.0 0.00 0.00 0.00 83 1006.5
20260506220532 12 302 12.9 0.0 0.00 0.00 0.00 83 1006.5
20260506220032 12 357 4.8 0.0 0.00 0.00 0.00 83 1006.2
20260506215532 12 0 4.8 0.0 0.00 0.00 0.00 83 1006.0
20260506215031 12 10 0.0 0.0 0.00 0.00 0.00 83 1005.9
20260506214532 12 357 0.0 0.0 0.00 0.00 0.00 83 1005.9
20260506214032 12 347 0.0 0.0 0.00 0.00 0.00 83 1005.9
20260506213532 12 347 0.0 0.0 0.00 0.00 0.00 83 1005.9
20260506213031 12 347 0.0 0.0 0.00 0.00 0.00 83 1005.9
20260506212531 12 347 3.2 0.0 0.00 0.00 0.00 83 1005.9
20260506212031 12 350 4.8 0.0 0.00 0.00 0.00 82 1005.8
20260506211531 12 22 0.0 0.0 0.00 0.00 0.00 82 1005.6
20260506211032 12 22 0.0 0.0 0.00 0.00 0.00 82 1005.6
20260506210531 12 22 0.0 0.0 0.00 0.00 0.00 82 1005.6
20260506210032 12 22 0.0 0.0 0.00 0.00 0.00 82 1005.7
20260506205532 12 22 0.0 0.0 0.00 0.00 0.00 82 1005.8
20260506205032 12 22 0.0 0.0 0.00 0.00 0.00 82 1005.7
20260506204531 12 10 0.0 0.0 0.00 0.00 0.00 82 1005.6
20260506204031 12 10 0.0 0.0 0.00 0.00 0.00 81 1005.5
20260506203531 12 20 0.0 0.0 0.00 0.00 0.00 81 1005.4
20260506203031 12 20 0.0 0.0 0.00 0.00 0.00 81 1005.5
20260506202532 12 10 4.8 0.0 0.00 0.00 0.00 81 1005.5
20260506202032 13 350 4.8 0.0 0.00 0.00 0.00 81 1005.5
20260506201532 13 0 0.0 0.0 0.00 0.00 0.00 80 1005.5
20260506201033 13 357 0.0 0.0 0.00 0.00 0.00 80 1005.5
20260506200531 13 357 0.0 0.0 0.00 0.00 0.00 80 1005.5
20260506200032 13 355 4.8 0.0 0.00 0.00 0.00 80 1005.5
20260506195532 13 355 0.0 0.0 0.00 0.00 0.00 79 1005.5
20260506195032 13 8 4.8 0.0 0.00 0.00 0.00 79 1005.6
20260506194532 13 355 3.2 0.0 0.00 0.00 0.00 79 1005.5
20260506194033 13 10 0.0 0.0 0.00 0.00 0.00 78 1005.4
20260506193532 13 10 0.0 0.0 0.00 0.00 0.00 78 1005.4
20260506193032 13 40 0.0 0.0 0.00 0.00 0.00 77 1005.4
20260506192532 13 40 0.0 0.0 0.00 0.00 0.00 77 1005.3
20260506192032 14 355 4.8 0.0 0.00 0.00 0.00 77 1005.2
20260506191532 14 50 4.8 0.0 0.00 0.00 0.00 76 1005.2
20260506191032 14 75 0.0 0.0 0.00 0.00 0.00 75 1005.1
20260506190532 14 15 0.0 0.0 0.00 0.00 0.00 75 1005.0
20260506190032 14 15 0.0 0.0 0.00 0.00 0.00 75 1004.9
20260506185532 14 27 0.0 0.0 0.00 0.00 0.00 74 1004.8
20260506185032 14 37 0.0 0.0 0.00 0.00 0.00 74 1004.8
20260506184532 15 105 0.0 0.0 0.00 0.00 0.00 73 1004.8
20260506184031 15 100 0.0 0.0 0.00 0.00 0.00 72 1004.8
20260506183532 15 45 0.0 0.0 0.00 0.00 0.00 71 1004.8
20260506183032 15 45 0.0 0.0 0.00 0.00 0.00 71 1004.8
20260506182531 15 3 6.4 0.0 0.00 0.00 0.00 70 1004.7
20260506182032 16 35 3.2 0.0 0.00 0.00 0.00 69 1004.7
20260506181531 16 62 4.8 0.0 0.00 0.00 0.00 68 1004.7
20260506181032 16 342 6.4 0.0 0.00 0.00 0.00 67 1004.6
20260506180532 16 332 6.4 0.0 0.00 0.00 0.00 66 1004.5
20260506180031 17 350 0.0 0.0 0.00 0.00 0.00 64 1004.5
20260506175531 17 8 0.0 0.0 0.00 0.00 0.00 63 1004.5
20260506175033 18 350 0.0 0.0 0.00 0.00 0.00 61 1004.6
20260506174532 18 357 0.0 0.0 0.00 0.00 0.00 60 1004.6
20260506174031 18 10 0.0 0.0 0.00 0.00 0.00 59 1004.6
20260506173532 18 22 0.0 0.0 0.00 0.00 0.00 59 1004.5
20260506173031 18 22 0.0 0.0 0.00 0.00 0.00 58 1004.5
20260506172532 18 25 0.0 0.0 0.00 0.00 0.00 58 1004.5